Время (UTC), дата Ветер
(°,м/с) 
Видим.   Явления Облачность Т
(°С)
Тd
(°С)
f(%) Тe
(°С)
Pmin
(гПа)
dP
(гПа)
Po
(мм)
O2
(г/м3)
Тmin Tmax R s Состояние
почвы
00 01.10.12 290 (З) >10 км    ясно 
+14.4 +8.8 69 +15  1022.5  0.2  727  277           
03 01.10.12 240 (ЮЗ) >10 км    4/0 верхняя 
[Ci fib]
+11.9 +8.4 79 +11  1024.3  1.3  728  280           
06 01.10.12 270 (З) >10 км    3/0 верхняя 
[Ci fib]
+22.1 +9.6 45 +23  1023.3  0.8  729  270  +11.6         
09 01.10.12 300 (СЗ) >10 км    1/0 верхняя 
[Ci fib]
+24.2 +10.2 41 +26  1022.8  0.1  729  268           
12 01.10.12 300 (СЗ) >10 км    5/0 верхняя 
[Ci fib]
+25.1 +9.6 37 +26  1022.2  -0.4  728  267           
15 01.10.12 320 (СЗ) >10 км    3/0 верхняя 
[Ci fib]
+22.3 +10.7 48 +25  1023.1  0.4  729  269    +25.6       
18 01.10.12 030 (СВ) >10 км    ясно 
+18.9 +11.3 61 +24  1024.4  0.6  729  273    +25.6       
21 01.10.12 090 (В) >10 км    ясно 
+15 +9.9 72 +17  1025.7  0.5  730  277           
00 02.10.12 090 (В) >10 км    ясно 
+12.9 +9.3 79 +14  1025.5  -0.6  729  279           
03 02.10.12 110 (В) >10 км    ясно 
+11.7 +8.7 82 +11  1025.5  -0.2  729  280           
06 02.10.12 110 (В) >10 км    ясно 
+18.1 +5.7 44 +18  1024.8  0.4  729  275  +11.7         
09 02.10.12 110 (В) >10 км    ясно 
+23.2 +4.8 30 +23  1023.1  -0.7  729  270           
12 02.10.12 090 (В) >10 км    ясно 
+23.8 +6 32 +24  1021.8  -1.1  728  269           
15 02.10.12 090 (В) >10 км    ясно 
+18.9 +5.1 40 +19  1022.7  728  273    +24.2       
18 02.10.12 080 (В) >10 км    ясно 
+13.7 +5.5 58 +13  1023.8  728  278    +24.2       
21 02.10.12 110 (В) >10 км    ясно 
+13.5 +4 53 +13  1023.1  -0.7  727  279           
00 03.10.12 090 (В) >10 км    ясно 
+10 +4.5 69 +9  1022.9  -0.9  727  282           
03 03.10.12 100 (В) >10 км    1/0 средняя 
[Ac trans]
+10.2 +7.8 85 +9  1022.6  0.1  727  281           
06 03.10.12 120 (ЮВ) >10 км    1/1 <0100 м 
[Sc diur, vesp]
+16.1 +10.5 69 +17  1021.2  -0.3  726  274  +9.7         
09 03.10.12 110 (В) 10  >10 км    3/0 верхняя 
[Ci sp]
+20.3 +9 48 +21  1019.3  -1.1  726  271           
12 03.10.12 100 (В) >10 км    6/0 верхняя 
[Ci]
+20.4 +8.1 45 +20  1017.7  -1.5  725  270           
15 03.10.12 090 (В) >10 км    4/0 верхняя 
[Ci fib]
+17.6 +5.6 45 +17  1017.6  -0.6  724  273    +21.9       
18 03.10.12 110 (В) >10 км    4/0 верхняя 
[Ci fib]
+14.5 +10.6 77 +17  1017.7  -0.5  724  275    +21.9       
21 03.10.12 100 (В) >10 км    3/0 верхняя 
[Ci fib]
+12.6 +10.3 86 +14  1017.2  -0.8  723  277           
00 04.10.12 110 (В) >10 км    6/0 средняя 
[Ac trans]
+11.6 +9.8 89 +12  1016.6  -0.8  723  277           
03 04.10.12 100 (В) >10 км    5/0 верхняя 
[Ci fib]
+10.9 +9.8 93 +11  1016.5  -0.8  722  278           
06 04.10.12 120 (ЮВ) >10 км    9/9 570 м 
[Sc]
+15.3 +10.6 74 +17  1016  0.3  723  274  +10.9         
09 04.10.12 110 (В) >10 км    9/9 840 м 
[Sc]
+17.8 +11.3 66 +21  1015.7  0.2  723  271           
15 04.10.12 120 (ЮВ) >10 км    10/4 600 м средняя 
[Sc|Ac und]
+16.2 +11.8 75 +20  1014.9  -0.3  722  272    +18.3       
18 04.10.12 120 (ЮВ) >10 км    6/0 средняя 
[Ac trans]
+14 +11.2 83 +17  1015.2  -0.2  722  275    +18.3       
21 04.10.12 110 (В) >10 км    10/4 600 м средняя 
[Sc|Ac und]
+14.1 +10.8 81 +16  1014.8  -0.3  722  274           
00 05.10.12 110 (В) н/о    н/о 
+13.4 +11 85 +15  1014.2  -0.7  721  275           
03 05.10.12 130 (ЮВ) >10 км    10/6 200 м средняя 
[St|Ac und]
+13.2 +12.1 93 +18  1014.3  721  275           
06 05.10.12 130 (ЮВ) >10 км    10/5 240 м средняя 
[St|Ac und]
+14.7 +12.5 87 +20  1014.3  0.3  721  273  +13         
09 05.10.12 120 (ЮВ) >10 км    8/5 480 м средняя 
[Sc|Ac trans]
+18 +13.1 73 +24  1013.6  0.1  721  270           
12 05.10.12 100 (В) >10 км  слаб. ливневой дождь  10/5 600 м кучево-дожд., средняя 
[Cb cap|Ac und]
+18.2 +13.6 75 +26  1014  0.4  722  270           
15 05.10.12 100 (В) >10 км  {ливн. осадки}  10/5 600 м кучево-дожд., средняя 
[Cb calv|Ac und]
+16.4 +13.4 82 +24  1014.6  0.3  722  272    +18.9       
18 05.10.12 240 (ЮЗ) >10 км  слаб. ливневой дождь  10/6 600 м кучево-дожд., средняя 
[Cb cap|Ac und]
+15.5 +14.4 93 +25  1015.9  1.1  723  273    +18.9  0.0     
21 05.10.12 290 (З) >10 км  слаб. ливневой дождь  10/5 600 м кучево-дожд., средняя 
[Cb cap|Ac und]
+15.6 +13.2 86 +23  1015.9  723  273           
00 06.10.12 280 (З) >10 км  {ливн. осадки}  4/0 средняя 
[Ac trans]
+15.8 +13.5 86 +22  1016.6  0.7  723  273           
03 06.10.12 280 (З) >10 км    8/5 240 м средняя 
[St|Ac trans]
+15.8 +14.3 91 +23  1017.8  1.1  724  273           
06 06.10.12 240 (ЮЗ) 98  4900 м    1/0 
[Sc]
+17.4 +13.7 79 +21  1019  1.4  725  272  +14.5       
09 06.10.12 290 (З) >10 км    6/6 700 м 
[Sc]
+18.8 +13.6 72 +26  1019.8  726  271           
12 06.10.12 290 (З) >10 км    4/4 600 м 
[Sc]
+21.1 +11 52 +24  1019.5  0.1  726  269           
15 06.10.12 290 (З) >10 км    4/0 верхняя 
[Ci fib]
+16.4 +10 66 +19  1021.3  0.9  727  274    +21.1       
18 06.10.12 260 (З) >10 км    ясно 
+12.9 +9.4 79 +14  1022.8  0.7  727  278    +21.1       
21 06.10.12 270 (З) >10 км    ясно 
+13.2 +8.8 75 +14  1022  -0.7  727  278           
00 07.10.12 320 (СЗ) >10 км    ясно 
+11.7 +8.9 83 +12  1022.1  0.1  727  279           
03 07.10.12 150 (ЮВ) >10 км    3/0 средняя 
[Ac trans]
+11.5 +8.6 82 +13  1022  -0.2  726  279           
06 07.10.12 140 (ЮВ) >10 км    3/0 верхняя 
[Ci fib]
+17.5 +10.5 63 +20  1020.6  -0.2  726  273  +10.4         
09 07.10.12 140 (ЮВ) >10 км    ясно 
+22.5 +10 45 +24  1017.9  -1.8  725  268           
12 07.10.12 130 (ЮВ) >10 км    ясно 
+23.9 +9.3 39 +25  1016  -1.5  724  267           
15 07.10.12 080 (В) >10 км    3/0 верхняя 
[Ci fib]
+17.6 +9.3 58 +19  1016.2  -1.5  723  272    +24.5       
18 07.10.12 120 (ЮВ) >10 км    3/0 верхняя 
[Ci fib]
+16 +10 68 +18  1016  -0.5  723  273    +24.5       
21 07.10.12 120 (ЮВ) >10 км    ясно 
+14.4 +10.4 77 +16  1015.1  -1.1  722  274           
00 08.10.12 150 (ЮВ) >10 км    ясно 
+14.1 +11.1 82 +17  1013.8  -1.3  721  274           
03 08.10.12 140 (ЮВ) >10 км    ясно 
+12.1 +10.5 90 +15  1013.1  -1  720  276           
06 08.10.12 130 (ЮВ) 3000 м  дымка{туман}  10/10 100 м 
[St]
+13.9 +13.1 95 +21  1011.6  -1.1  719  273  +12.1         
09 08.10.12 160 (Ю) >10 км    9/9 1000 м 
+19.6 +14.1 71 +20  1008.8  -1.1             
12 08.10.12 110 (В) >10 км    8/0 средняя 
[Ac trans]
+22.3 +13.1 56 +29  1006.3  -1.8  717  264           
15 08.10.12 230 (ЮЗ) >10 км  слаб. ливневой дождь  10/6 1000 м кучево-дожд., средняя 
[Cb cap|Ac und]
+17.9 +14.6 81 +28  1006.8  -0.3  717  268      0.0     
18 08.10.12 140 (ЮВ) >10 км  {ливн. осадки}  10/4 1000 м кучево-дожд., средняя 
[Cb cap|Ac und]
+16.5 +13.9 85 +25  1006.8  -0.3  716  269           
21 08.10.12 300 (СЗ) >10 км  в посл. час ливневой дождь  10/6 1000 м кучево-дожд., средняя 
[Cb cap|Ac und]
+15.8 +14.5 92 +26  1005.5  -1.3  715  269           
00 09.10.12 290 (З) >10 км  {ливн. осадки}  6/3 1000 м кучево-дожд., средняя 
[Cb cap|Ac lent]
+15.5 +13.3 87 +23  1005.2  -0.4  715  270           
03 09.10.12 270 (З) >10 км  слаб. ливневой дождь  10/6 1000 м кучево-дожд., средняя 
[Cb cap|Ac und]
+15 +10.9 77 +17  1006.3  0.9  716  271  +13.3       
06 09.10.12 240 (ЮЗ) 5{11}  >10 км  слаб. ливневой дождь  10/5 1000 м кучево-дожд., средняя 
[Cb cap|Ac und]
+14.4 +12.2 87 +19  1007.8  0.9  717  272           
09 09.10.12 290 (З) 7-11  >10 км  {ливн. осадки}  8/4 200 м кучево-дожд., верхняя 
[Cb calv|Ci fib]
+13.9 +9.3 74 +14  1009.1  1.1  718  273          полностью
покрыта
пылью 
12 09.10.12 280 (З) 12-12{17}  >10 км  {ливн. осадки}  8/4 1000 м кучево-дожд., верхняя 
[Cb calv|Ci fib]
+14.6 +6.4 58 +13  1010  1.1  718  274           
15 09.10.12 290 (З) 5{18}  >10 км    8/3 600 м верхняя 
[Sc diur, vesp|Ci fib]
+11.6 +5.1 64 +11  1013.2  2.5  720  277    +15.4     
18 09.10.12 280 (З) >10 км    1/0 верхняя 
[Ci fib]
+9.7 +4.8 72 +8  1015.2  1.5  721  280           
21 09.10.12 280 (З) 5{10}  >10 км    ясно 
+8.2 +3.5 72 +7  1016.1  0.6  722  282           
00 10.10.12 210 (ЮЗ) >10 км    ясно 
+5.5 +2.9 83 +5  1017.5  0.8  722  285           
03 10.10.12 230 (ЮЗ) >10 км    3/0 верхняя 
[Ci]
+4.5 +2.5 87 +3  1018.4  0.6  723  286  +4.5        сухая 
06 10.10.12 180 (Ю) >10 км    6/3 1000 м средняя, верхняя 
[Sc diur, vesp|Ac trans|Ci fib]
+12 +5.6 65 +12  1017.8  0.9  723  278  +4.5         
09 10.10.12 150 (ЮВ) >10 км    6/3 600 м верхняя 
[Cu hum|Ci fib]
+16.1 +4.5 46 +16  1016.3  -0.7  723  274           
12 10.10.12 150 (ЮВ) >10 км    8/8 800 м 
[Cu hum]
+17.1 +5.1 45 +18  1015.8  -0.3  723  273           
15 10.10.12 140 (ЮВ) >10 км    8/8 1000 м 
[Sc diur, vesp]
+13.6 +5.9 60 +14  1017.1  0.6  723  277           
18 10.10.12 140 (ЮВ) >10 км    3/0 средняя 
[Ac trans]
+11.2 +6.2 71 +10  1017.8  0.2  723  279    +18.1       
21 10.10.12 150 (ЮВ) >10 км    ясно 
+9.6 +3.6 66 +9  1018.3  0.1  723  281           
00 11.10.12 130 (ЮВ) >10 км    3/0 средняя 
[Ac trans]
+7.5 +3.3 75 +6  1018.4  -0.3  723  283           
03 11.10.12 130 (ЮВ) >10 км    3/0 верхняя 
[Ci fib]
+6.8 +3.6 80 +5  1018.8  0.3  723  284           
06 11.10.12 130 (ЮВ) 9-11{11}  10 км    9/9 400 м 
[Sc]
+10.9 +8.4 84 +9  1017.7  -0.3  723  279  +6.7         
09 11.10.12 130 (ЮВ) 10-13{14}  >10 км    6/6 600 м 
[Sc]
+15.1 +8.6 65 +14  1015.2  -0.3  722  274           
12 11.10.12 130 (ЮВ) 9-12{14}  >10 км    9/3 600 м средняя 
[Sc|Ac trans]
+15.8 +8.7 63 +15  1012.8  -2.1  720  273           
15 11.10.12 120 (ЮВ) 5{13}  >10 км  в посл. час ливневой дождь  10/4 600 м кучево-дожд., средняя 
[Cb calv|Ac und]
+13.6 +9.4 76 +14  1012.4  -0.8  720  275    +17.2  0.0     
18 11.10.12 120 (ЮВ) >10 км  в посл. час ливневой дождь  10/3 600 м кучево-дожд., средняя 
[Cb calv|Ac und]
+12.3 +9.5 83 +13  1011.7  -0.9  719  276           
21 11.10.12 100 (В) 9-11{14}  >10 км    10/5 720 м кучево-дожд., средняя 
[Cb calv|Ac und]
+12.4 +9.3 81 +12  1008  -3.4  717  274           
00 12.10.12 090 (В) 5{13}  >10 км  в посл. час ливневой дождь  10/5 480 м кучево-дожд., средняя 
[Cb calv|Ac und]
+11.6 +10.1 91 +13  1007.4  -3.4  716  275           
03 12.10.12 120 (ЮВ) 10 км    10/6 100 м средняя 
[St|Ac und]
+11.6 +10.9 96 +15  1008.1  0.7  717  275  +11.4    0.0    сухая 
06 12.10.12 200 (Ю) 10 км  в посл. час ливневой дождь  10/5 180 м кучево-дожд., средняя 
[Cb cap|Ac und]
+12.3 +11.8 97 +17  1009  717  274           
09 12.10.12 280 (З) 9-12{13}  3000 м  слаб. морось  10/10 150 м 
[St]
+11.9 +11.1 95 +14  1011.3  2.1  719  275           
12 12.10.12 280 (З) 8-13  >10 км  в посл. час ливневой дождь{морось}  10/8 330 м кучево-дожд., средняя 
[Cb cap|Ac und]
+12.4 +10.6 89 +14  1013.8  2.5  721  276           
15 12.10.12 280 (З) >10 км    10/10 660 м кучево-дожд. 
[Cb cap]
+12.5 +10.6 88 +14  1016.5  2.5  723  276    +12.7  0.4     
18 12.10.12 280 (З) 6{10}  >10 км    4/3 600 м кучево-дожд., средняя 
[Cb calv|Ac trans]
+12.6 +12.6 100 +18    1.1  724  276           
21 12.10.12 280 (З) 5{11}  >10 км    3/0 средняя 
[Ac trans]
+9.7 +7.4 86 +8  1018.9  0.6  724  280           
00 13.10.12 270 (З) >10 км    9/0 средняя 
[Ac trans]
+10.1 +7.1 82 +9  1019.1  0.2  724  280           
03 13.10.12 280 (З) >10 км    9/5 1000 м средняя 
[Sc|Ac trans]
+9.2 +7.6 90 +9  1020.8  1.4  725  281  +9.2        влажная 
06 13.10.12 290 (З) >10 км    6/3 600 м средняя 
[Sc|Ac trans]
+10.2 +5.7 74 +9  1022.5  1.8  727  281           
09 13.10.12 290 (З) >10 км    3/1 1000 м средняя, верхняя 
[Sc|Ac trans|Ci fib]
+13.6 -1.1 36 +13  1022.1  0.1  727  279           
12 13.10.12 290 (З) 5{10}  >10 км    4/0 средняя 
[Ac trans]
+14.1 +2.1 44 +14  1021.9  727  278           
15 13.10.12 320 (СЗ) >10 км    3/0 верхняя 
[Ci fib]
+10.8 +3.3 60 +12  1023.1  0.6  727  281    +14.6       
18 13.10.12 тихо ()   >10 км    3/0 средняя 
[Ac trans]
+6.9 +2.7 75 +7  1024.5  0.6  728  285           
21 13.10.12 120 (ЮВ) >10 км    ясно 
+6.9 +3.2 77 +7  1023.8  -0.7  727  285           
00 14.10.12 140 (ЮВ) >10 км    ясно 
+5.2 +1.7 78 +4  1023.5  -0.6  727  287           
03 14.10.12 130 (ЮВ) >10 км    4/0 средняя 
[Ac trans]
+4.2 +1.3 81 +3  1023.9  -0.6  727  288  +4        сухая 
06 14.10.12 010 (С) >10 км    1/0 средняя, верхняя 
[Ac trans|Ci fib]
+1.9   1023.3  0.7  727             
09 14.10.12 140 (ЮВ) >10 км    8/0 верхняя 
[Ci fib]
+17.3 +4.5 43 +17  1020.9  -1.1  726  274           
12 14.10.12 130 (ЮВ) 5{10}  >10 км    4/0 верхняя 
[Ci fib]
+19.8 +4.2 36 +20  1019.5  -1.1  726  272           
15 14.10.12 130 (ЮВ) >10 км    3/0 верхняя 
[Ci fib]
+14 +5.5 57 +14  1020.7  -0.1  726  277    +20.4       
18 14.10.12 120 (ЮВ) >10 км    ясно 
+11.8 +5.1 63 +11  1021.5  0.4  726  280           
21 14.10.12 140 (ЮВ) >10 км    ясно 
+9.8 +6.6 80 +9  1021.9  726  281           
00 15.10.12 150 (ЮВ) >10 км    ясно 
+8.8 +7.9 94 +8  1022.1  726  282           
03 15.10.12 170 (Ю) 4000 м  дымка  10/10 200 м 
[St]
+10.5 +9.6 94 +11  1021.4  -0.3  726  280  +8.6         
06 15.10.12 140 (ЮВ) >10 км    6/3 300 м верхняя 
[St|Ci fib]
+14.2 +10.8 80 +16  1021.6  0.9  727  276           
09 15.10.12 140 (ЮВ) 7-10{12}  >10 км    5/0 верхняя 
[Ci fib]
+19.7 +10 54 +22  1019.7  -0.9  726  271           
12 15.10.12 150 (ЮВ) 5{10}  >10 км    4/0 верхняя 
[Ci fib]
+21.2 +8.9 45 +22  1019.1  -0.3  726  270           
15 15.10.12 130 (ЮВ) >10 км    3/0 верхняя 
[Ci fib]
+14.7 +9.6 71 +16  1021.5  1.1  726  276    +21.2       
18 15.10.12 180 (Ю) >10 км    ясно 
+13 +10.6 85 +16  1022.7  0.8  727  278           
21 15.10.12 160 (Ю) >10 км    ясно 
+11.9 +10.3 90 +13  1022.4  -0.5  727  279           
00 16.10.12 140 (ЮВ) 10 км    ясно 
+11.3 +9.9 91 +13  1022.3  -0.2  727  279           
03 16.10.12 150 (ЮВ) 0200 м  туман  ясно 
+9.4 +8.9 97 +9  1023.2  0.5  727  282  +9.2        сухая 
06 16.10.12 140 (ЮВ) 0200 м  туман  ?/?  
+10.8 +10.4 97 +12  1024.4  1.4  728  280  +8.8         
09 16.10.12 140 (ЮВ) >10 км  {туман}  10/10 210 м 
[St]
+15.3 +13.6 90 +22  1023.5  728  275           
12 16.10.12 140 (ЮВ) >10 км    ясно 
+20.9 +12.6 59 +26  1022.1  -0.4  728  270           
15 16.10.12 140 (ЮВ) >10 км    ясно 
+14.5 +11.3 81 +19  1023.6  0.3  728  276    +21       
18 16.10.12 160 (Ю) >10 км    ясно 
+11.9 +11.1 95 +16  1024.2  0.1  728  279           
21 16.10.12 160 (Ю) >10 км    ясно 
+12.1 +11.4 96 +16  1023.2  -0.9  727  278           
00 17.10.12 160 (Ю) 1500 м  дымка  10/10 100 м 
[St]
+12.1 +11.9 99 +16  1022.9  -0.6  727  278           
03 17.10.12 140 (ЮВ) 0400 м  туман  ?/?  
+12.7 +12.7 100 +18  1022.5  -0.1  727  277  +11        сухая 
06 17.10.12 160 (Ю) 4000 м  дымка{туман}  10/10 180 м 
[St]
+13.4 +13 97 +18  1023.1  0.6  728  277  +9.2         
09 17.10.12 140 (ЮВ) 6-10{11}  >10 км    8/6 480 м средняя 
[St|Ac trans]
+17 +11.9 72 +21  1021.9  -0.5  727  273           
12 17.10.12 140 (ЮВ) 7-10{11}  >10 км    4/0 средняя 
[Ac trans]
+18.2 +11.9 67 +22  1021.3  -0.4  727  272           
15 17.10.12 150 (ЮВ) 5{11}  >10 км    1/0 средняя 
[Ac trans]
+14.9 +10.9 77 +17  1021.9  727  276    +19.5       
18 17.10.12 150 (ЮВ) >10 км    ясно 
+13.3 +10.4 83 +15  1021.9  -0.3  727  277           
21 17.10.12 120 (ЮВ) >10 км    ясно 
+11.7 +10.1 90 +13  1021.6  -0.6  726  279           
00 18.10.12 150 (ЮВ) >10 км    ясно кучево-дожд., средняя, верхняя 
[Cb cap|Ac inh|Cs]
+11.6 +10.5 93 +13  1021.7    751  288           
03 18.10.12 140 (ЮВ) 0100 м  туман  ?/?  
+10.3 +9.9 97 +11  1022.4  0.4  727  280  +10.1        сухая 
06 18.10.12 150 (ЮВ) 3000 м  дымка{туман}  8/8 120 м 
[St]
+12.4 +12 97 +17  1022.7  0.7  727  278  +10.1         
09 18.10.12 120 (ЮВ) >10 км    3/0 средняя 
[Ac trans]
+20.6 +10.3 52 +23  1021.1  0.1  727  270           
12 18.10.12 070 (В) >10 км    3/0 средняя 
[Ac trans]
+21.3 +9.4 47 +22  1020.5  -0.5  727  270           
15 18.10.12 090 (В) >10 км    8/3 1000 м средняя 
[Sc|Ac trans]
+16.8 +10.6 67 +20  1022.1  0.8  727  274    +22.6       
18 18.10.12 170 (Ю) >10 км    8/0 средняя 
[Ac trans]
+15.1 +11.3 78 +19  1023  0.6  728  276           
21 18.10.12 100 (В) >10 км    8/0 средняя 
[Ac trans]
+13.3 +10.7 84 +16  1023.1  -0.3  727  277           
00 19.10.12 120 (ЮВ) >10 км    8/3 600 м кучево-дожд., средняя 
[Cb calv|Ac trans]
+12.8 +11.2 90 +16  1023.4  0.2  728  278           
03 19.10.12 100 (В) 2000 м  дымка  10/6 100 м средняя 
[St|Ac und]
+11 +10.4 96 +12  1024.3  0.6  728  280  +10.6         
06 19.10.12 110 (В) 10 км  {туман}  10/8 150 м средняя 
[St|Ac und]
+12.2 +11.2 94 +14  1024.6  0.5  728  279           
09 19.10.12 110 (В) >10 км    10/8 400 м средняя 
[St|Ac und]
+13.6 +10.6 82 +15  1024.3  0.1  728  278           
12 19.10.12 120 (ЮВ) 6{12}  >10 км    10/8 500 м средняя 
[Sc|Ac und]
+14.4 +10.8 79 +17  1024.4  0.3  729  277           
15 19.10.12 120 (ЮВ) >10 км    10/8 570 м средняя 
[Sc|Ac und]
+15.5 +11.7 78 +19  1024.6  0.4  729  276    +15.5       
18 19.10.12 110 (В) 7{10}  >10 км    10/8 720 м средняя 
[Sc|Ac und]
+13.5 +10.2 80 +14  1025.5  0.5  729  278           
00 20.10.12 120 (ЮВ) 6-10{11}  10 км    10/8 150 м средняя 
[St|Ac und]
+11.2 +10.3 94 +12  1025.1  -0.2  729  280           
03 20.10.12 110 (В) 10 км    10/8 200 м средняя 
[St|Ac und]
+10.9 +9.6 92 +10  1025  0.1  728  280  +10.8        сухая 
06 20.10.12 110 (В) 8-12{13}  >10 км    10/6 500 м средняя 
[Sc|Ac und]
+12.2 +9.2 82 +12  1025.3  0.5  729  279           
09 20.10.12 110 (В) 9-13{14}  >10 км    10/8 540 м средняя 
[Sc|Ac und]
+13 +9 77 +11  1024.9  -0.2  729  279           
12 20.10.12 120 (ЮВ) 9-12{13}  >10 км    9/6 600 м средняя 
[Sc|Ac und]
+14.9 +9.3 69 +15  1024.2  -0.4  728  277           
15 20.10.12 100 (В) 5{12}  >10 км    6/3 1000 м средняя 
[Sc|Ac trans]
+12.5 +8.8 78 +12  1024.3  -0.4  728  279    +15.2       
18 20.10.12 090 (В) >10 км    3/0 средняя 
[Ac trans]
+11.6 +8.6 82 +10  1024.4  0.1  728  280           
21 20.10.12 080 (В) >10 км    1/0 средняя 
[Ac trans]
+9.1 +8.3 95 +8  1024.8  0.1  728  282           
00 21.10.12 110 (В) 6{10}  2000 м  дымка  10/10 100 м 
[St]
+9.9 +9.4 97 +9  1023.6  -0.9  727  281           
03 21.10.12 100 (В) 4000 м  дымка  10/10 100 м 
[St]
+10.3 +9.7 96 +10  1023.6  -0.6  727  281  +9.1         
06 21.10.12 090 (В) 5{10}  >10 км    10/8 270 м средняя 
[St|Ac und]
+11.1 +9.9 92 +12  1024.4  -0.9  728  280           
09 21.10.12 100 (В) 7-10{11}  >10 км    10/8 400 м средняя 
[St|Ac und]
+12.9 +9.8 81 +13  1023.9  -0.9  728  278           
12 21.10.12 110 (В) 9-13{13}  >10 км    10/8 600 м средняя 
[Sc|Ac und]
+13.8 +9.5 75 +13  1023.1  -0.9  728  277           
15 21.10.12 120 (ЮВ) 4{13}  >10 км    5/5 600 м 
[Sc]
+12.9 +9.2 78 +13  1022.9  -0.3  727  278    +14.4       
18 21.10.12 100 (В) >10 км    ясно 
+9.5 +8.3 92 +9  1022.9  -0.3  727  281           
21 21.10.12 100 (В) >10 км    3/0 верхняя 
[Ci fib]
+9.1 +8.2 94 +8  1022.3  -0.7  726  282           
00 22.10.12 130 (ЮВ) 4000 м  дымка  10/10 240 м 
[St]
+10.2 +9.7 97 +10  1021.5  -0.7  726  280           
03 22.10.12 130 (ЮВ) >10 км    10/10 100 м 
[St]
+11.1 +10.4 95 +12  1021.5  0.1  726  279  +8.8        сухая 
06 22.10.12 140 (ЮВ) 5{10}  10 км    10/10 210 м 
[St]
+12 +10.6 91 +14  1021.5  0.1  726  278           
09 22.10.12 140 (ЮВ) >10 км    ясно 
+18 +9.9 59 +20  1018.9  -1.3  725  272           
12 22.10.12 080 (В) >10 км    ясно 
+20.1 +8.3 47 +20  1016.9  -1.5  724  270           
15 22.10.12 110 (В) >10 км    ясно 
+13.6 +9.5 76 +14  1017.5  -0.5  724  276    +20.4       
18 22.10.12 010 (С) >10 км    ясно 
+11.7 +8.3 80 +13  1016.9  0.1  724  278           
21 22.10.12 060 (СВ) >10 км    ясно 
+10.8 +8.9 88 +12  1017  -0.7  723  279           
00 23.10.12 220 (ЮЗ) >10 км    ясно 
+6.7 +5.6 93 +8  1017.6  0.3  723  283           
03 23.10.12 350 (С) >10 км    ясно 
+10.3 +8.1 86 +10  1016.7  -0.1  722  279  +6.5        сухая 
06 23.10.12 080 (В) 10 км    ясно 
+13.8 +10.4 80 +17  1016.6  0.5  723  275           
09 23.10.12 090 (В) >10 км    ясно 
+17 +10 63 +19  1015.7  -0.3  723  272           
12 23.10.12 100 (В) >10 км    ясно 
+19.7 +8.1 47 +21  1014.3  -0.9  722  270           
15 23.10.12 080 (В) >10 км    ясно 
+13.8 +10.1 78 +15  1015.8  0.6  722  275    +19.8       
18 23.10.12 110 (В) >10 км    ясно 
+10.2 +9.1 93 +11  1016.4  -0.1  722  279           
21 23.10.12 140 (ЮВ) 10 км    ясно 
+9.3 +8.7 96 +9  1015.6  -0.9  722  280           
00 24.10.12 110 (В) 1500 м  дымка{туман}  ясно 
+8 +7.6 97 +8  1015.3  -0.7  721  281           
03 24.10.12 180 (Ю) 1200 м  дымка{туман}  8/8 60 м 
[St]
+9.4 +9.1 98 +9  1014.5  -0.6  721  279  +7        сухая 
06 24.10.12 170 (Ю) 4000 м  дымка{туман}  9/3 200 м средняя 
[St|Ac trans]
+12.1 +11.5 96 +15  1014  0.2  721  276    -0      полностью
покрыта
пылью 
09 24.10.12 150 (ЮВ) >10 км    9/8 480 м 
[Sc]
+16.8 +12.5 76 +24  1012.5  -0.6  720  271           
12 24.10.12 270 (З) 4000 м  дымка  10/10 50 м 
[Sc]
+16.9 +9.4 61 +18  1012.3  720  272           
15 24.10.12 270 (З) >10 км    8/5 600 м средняя 
[Sc|Ac trans]
+13.6 +9.7 77 +16  1013.7  0.8  721  275    +17.6       
18 24.10.12 250 (З) >10 км    8/5 1000 м средняя 
[Sc|Ac trans]
+10.7 +10.3 97 +13  1014.8  0.5  721  278           
21 24.10.12 240 (ЮЗ) >10 км  в посл. час ливневой дождь  10/6 1200 м кучево-дожд., средняя 
[Cb cap|Ac und]
+11.9 +10.4 91 +14  1014.7  0.5  721  277           
00 25.10.12 220 (ЮЗ) >10 км    10/6 1000 м кучево-дожд., средняя 
[Cb calv|Ac und]
+12.2 +9.9 86 +15  1014.6  0.1  721  276           
03 25.10.12 230 (ЮЗ) >10 км    10/6 1000 м кучево-дожд., средняя 
[Cb cap|Ac und]
+12.1 +10.5 90 +15  1014.4  0.1  721  276  +10.2    0.0     
06 25.10.12 190 (Ю) >10 км    9/4 1000 м средняя, верхняя 
[Sc|Ac trans|Ci fib]
+13.6 +9.4 76 +15  1013.9  -0.3  721  275           
09 25.10.12 300 (СЗ) >10 км    10/4 1000 м кучево-дожд., средняя 
[Cb cap|Ac und]
+16 +8.4 61 +16  1012.3  -1.1  720  273           
12 25.10.12 350 (С) >10 км    10/4 1000 м кучево-дожд., средняя 
[Cb cap|Ac und]
+14.3 +9.9 75 +16  1011.6  -0.9  719  274           
15 25.10.12 тихо ()   >10 км    10/6 600 м средняя 
[Sc|Ac und]
+13.1 +9.5 79 +14  1011.9  719  275    +17       
18 25.10.12 350 (С) >10 км  слаб. ливневой дождь  10/6 930 м кучево-дожд., средняя 
[Cb cap|Ac und]
+11.9 +10.4 91 +16  1011.4  -0.7  719  276           
21 25.10.12 290 (З) >10 км  {ливн. осадки}  10/10 1000 м 
[Sc]
+11.5 +9.1 85 +14  1011  -0.5  719  276           
00 26.10.12 300 (СЗ) 10 км  {ливн. осадки}  10/10 180 м 
[St]
+10.7 +10 95 +14  1010.5  -0.6  718  277           
03 26.10.12 290 (З) 2000 м  дымка  10/10 180 м 
[St]
+10.3 +9.8 97 +13  1011  0.4  718  277  +10.2    0.3    сухая 
06 26.10.12 290 (З) 4000 м  дымка  10/4 300 м средняя 
[Sc|Ac und]
+9.7 +7.8 88 +11  1012.2  719  278      0.3     
09 26.10.12 290 (З) >10 км    3/3 600 м 
[Sc]
+14.8 +6.9 59 +15  1010.9  -0.4  719  274           
12 26.10.12 290 (З) >10 км    1/1 600 м 
[Sc]
+16.5 +6.9 53 +18  1010.1  -0.5  719  272           
15 26.10.12 100 (В) >10 км    ясно 
+11.3 +6.6 73 +12  1011.4  -0.5  719  277    +16.8       
18 26.10.12 тихо ()   >10 км    ясно 
+9.1 +6.3 83 +9  1012.8  0.9  720  279           
21 26.10.12 270 (З) >10 км    ясно 
+9.6 +6.2 79 +9  1013.4  0.6  720  279           
00 27.10.12 280 (З) >10 км    ясно 
+10.2 +7.8 85 +10  1014.1  0.7  721  278           
03 27.10.12 270 (З) >10 км    ясно 
+10.3 +7.6 83 +9  1014.9  0.8  721  279  +8.2        сухая 
06 27.10.12 240 (ЮЗ) >10 км    3/0 средняя 
[Ac trans]
+14 +9 72 +16  1015.9  1.6  722  275           
09 27.10.12 270 (З) >10 км    8/3 600 м средняя, верхняя 
[Cu hum|Ac trans|Ci fib]
+17.1 +6.3 49 +18  1015.9  0.5  723  273           
12 27.10.12 050 (СВ) >10 км    6/3 600 м средняя, верхняя 
[Cu hum|Ac trans|Ci fib]
+17.2 +9 59 +19  1015.9  0.1  723  272           
15 27.10.12 020 (С) >10 км    3/0 средняя 
[Ac trans]
+13 +8.9 76 +13  1017.2  0.4  723  277    +18.1       
18 27.10.12 090 (В) >10 км    ясно 
+9.4 +8 91 +9  1018.4  0.5  724  280           
21 27.10.12 040 (СВ) 2000 м  дымка  ясно 
+8.4 +7.8 96 +9  1018.7  0.1  724  281           
00 28.10.12 170 (Ю) 3000 м  дымка{туман}  ясно 
+7.5 +6.8 95 +7  1018.4  -0.4  723  282           
03 28.10.12 140 (ЮВ) 10 км    3/0 средняя 
[Ac trans]
+8.6 +7.9 95 +8  1017.8  -0.4  723  281  +7.1        сухая 
06 28.10.12 140 (ЮВ) >10 км    ясно 
+12.5 +10 85 +13  1017.7  0.7  724  277           
09 28.10.12 130 (ЮВ) 9-11{12}  >10 км    ясно 
+19.5 +8.5 49 +19  1015.9  -0.5  723  270           
12 28.10.12 150 (ЮВ) 7-11{13}  >10 км    3/0 средняя 
[Ac trans]
+20.6 +7 41 +21  1015.1  -0.6  723  270           
15 28.10.12 130 (ЮВ) 5{10}  >10 км    3/0 средняя 
[Ac trans]
+14 +8.7 70 +13  1016.3  723  275    +20.9       
18 28.10.12 130 (ЮВ) >10 км    ясно 
+11.8 +10 89 +13  1016.7  723  277           
21 28.10.12 160 (Ю) >10 км    ясно 
+10 +8.2 89 +9  1016.4  -0.7  722  279           
00 29.10.12 160 (Ю) >10 км    6/0 верхняя 
[Ci fib]
+10.3 +7 80 +9  1016  -0.4  722  279           
03 29.10.12 180 (Ю) >10 км    4/0 верхняя 
[Ci fib]
+9.3 +5.6 78 +9  1015.6  -0.5  722  280  +7.9        сухая 
06 29.10.12 210 (ЮЗ) >10 км    8/0 средняя, верхняя 
[Ac trans|Ci fib]
+19.2 +5.5 41 +21  1014.4  0.6  722  271           
09 29.10.12 080 (В) >10 км    8/0 средняя, верхняя 
[Ac trans|Ci fib]
+23.3 +0 21 +23  1012.7  -0.9  721  268           
12 29.10.12 080 (В) >10 км    10/0 средняя, верхняя 
[Ac trans|Ci fib]
+23.5 +0 21 +24  1012.7  721  268           
15 29.10.12 090 (В) >10 км    10/3 1000 м средняя 
[Sc|Ac und]
+17.9 +6.7 48 +18  1014.1  0.5  722  272    +23.9       
18 29.10.12 130 (ЮВ) >10 км    10/3 1000 м средняя 
[Sc|Ac und]
+17.5 +3 38 +18  1013.1  -1  721  272           
21 29.10.12 140 (ЮВ) >10 км    4/0 средняя 
[Ac trans]
+15.7 +3.4 44 +16  1012.7  -0.7  720  274           
00 30.10.12 140 (ЮВ) >10 км    6/0 средняя, верхняя 
[Ac trans|Ci fib]
+16.2 +0.9 35 +17  1012  -0.6  720  274           
03 30.10.12 170 (Ю) >10 км    6/0 средняя, верхняя 
[Ac trans|Ci fib]
+14.5 +0.1 37 +14  1011.1  -1.2  719  275  +14.5        сухая 
06 30.10.12 130 (ЮВ) >10 км    8/0 средняя 
[Ac trans]
+20.4 +0.8 27 +20  1009.4  -0.5  719  269           
09 30.10.12 130 (ЮВ) 6-11{11}  >10 км    8/0 средняя 
[Ac trans]
+25.9 +0.7 19 +26  1006.7  -1.7  717  264           
12 30.10.12 110 (В) 6-11{11}  >10 км    8/0 средняя 
[Ac trans]
+24.8 +0.4 20 +25  1005.7  -1.1  716  264           
15 30.10.12 140 (ЮВ) 4-10  >10 км    9/0 средняя 
[Ac trans]
+19.7 +1.5 30 +20  1007.1  0.4  717  269    +27.4       
18 30.10.12 170 (Ю) >10 км    9/0 средняя 
[Ac trans]
+18.3 +5.3 42 +20  1008.5  1.2  718  270           
21 30.10.12 280 (З) >10 км    10/3 1000 м кучево-дожд., средняя 
[Cb calv|Ac und]
+18.7 +6.8 46 +19  1010.6  719  270           
00 31.10.12 270 (З) 5{11}  >10 км    10/5 1000 м кучево-дожд., средняя 
[Cb calv|Ac und]
+15.7 +10.4 71 +17    2.5  721  273           
03 31.10.12 260 (З) >10 км    6/3 1000 м кучево-дожд., средняя 
[Cb calv|Ac trans]
+13.9 +9.1 73 +14  1015.5  1.3  722  275  +13.9        сухая 
06 31.10.12 290 (З) 6-10{10}  >10 км    3/3 600 м средняя 
[Sc|Ac trans]
+14.8 +7.9 63 +14  1018.4  2.9  724  275           
09 31.10.12 280 (З) 3{10}  >10 км    5/3 600 м верхняя 
[Sc|Ci fib]
+15.9 +8.5 61 +16  1019.8  1.5  725  275           
12 31.10.12 300 (СЗ) >10 км    8/3 1000 м средняя 
[Sc|Ac trans]
+14.5 +7.2 62 +15  1020.8  0.7  726  276           
15 31.10.12 350 (С) >10 км    8/0 средняя 
[Ac trans]
+11.6 +6.4 70 +11  1022.7  1.3  727  280    +16.6       
18 31.10.12 010 (С) >10 км    8/0 средняя 
[Ac trans]
+10.1 +3.4 63 +10  1024  0.9  728  282           
21 31.10.12 060 (СВ) >10 км    10/4 1500 м средняя 
[Sc|Ac und]
+8.8 +2.1 63 +8  1024.7  0.4  728  284           
00 01.11.12 070 (В) >10 км    10/4 1000 м средняя 
[Sc|Ac und]
+8.7 +1.2 59 +8  1024.5  -0.2  728  284           
03 01.11.12 070 (В) >10 км    10/5 1000 м средняя 
[Sc|Ac und]
+8.3 +0.1 56 +7  1024.3  -0.3  728  284  +8.2        сухая 
06 01.11.12 060 (СВ) >10 км    10/4 1500 м средняя 
[Sc|Ac und]
+8.8 +2.1 63 +8  1024.7  0.4  728  284           
09 01.11.12 080 (В) 10 км  слаб. дождь  10/8 800 м средняя 
[Sc|Ac und]
+6.1 +4.1 87 +5  1024.8  -0.8  728  286           
Время (UTC), дата Ветер
(°,м/с) 
Видим.   Явления Облачность Т
(°С)
Тd
(°С)
f(%) Тe
(°С)
Pmin
(гПа)
dP
(гПа)
Po
(мм)
O2
(г/м3)
Тmin Tmax R s Состояние
почвы